sat.trackr.live / text

‹ back to catalog

STARLINK-38056

NORAD 69760 · 2026-150X

PAYLOAD ACTIVE UNKNOWN

§ Identity

Operator
Country
US
Launch date
2026-07-02
Launch site
AFWTR
Launch vehicle
Mass (kg)
RCS (m²)

Purposes: comms

External: N2YO · Heavens-Above · Gunter

§ Orbital elements

Epoch: 2026-09-20T00:37:23.768256Z

Period
93.91 min
Inclination
97.2834°
Eccentricity
0.0002907
Mean motion
15.33452730 rev/d
Perigee alt
463.5 km
Apogee alt
467.5 km
Semi-major
6,843.7 km
B*
6.4375e-4
RAAN
101.9683°
Arg perigee
67.6556°
Mean anomaly
292.4995°
Rev number
1,366

§ Raw data

STARLINK-380561 69760U 26150X   26263.02596954  .00020772  00000+0  64375-3 0  99962 69760  97.2834 101.9683 0002907  67.6556 292.4995 15.33452730 13663

JSON: /api/v1/satellites/69760 · /tle

For live sub-satellite position, see the globe view (requires WebGL).

§ Visibility from observer

Set your observer location to see the next 7 days of passes ≥ 10°. The values pass through the URL so the page stays shareable.

No JS? Fill the form by hand. The geolocation button needs JavaScript.